Location: Easter Hill Village
(37.9235°N, 122.3444°W)
Time: 00:52:22
(UTC+00:00)

Meteor 1-27 Rocket - Pass Details

Date: 16 September 2019
Orbit: 829 x 911 km, 81.3° (Epoch: 20 October)

Event Time Altitude Azimuth Distance (km) Brightness Sun altitude
Rises 13:03:18 0° 203° (SSW) 3,524 6.6 -10.3°
Reaches altitude 10° 13:05:52 10° 208° (SSW) 2,583 5.9 -9.8°
Maximum altitude 13:11:33 49° 283° (WNW) 1,150 4.1 -8.7°
Drops below altitude 10° 13:17:12 10° 357° (N) 2,560 6.3 -7.6°
Sets 13:19:44 0° 3° (N) 3,491 7.1 -7.1°
